Dania, FL

8:52 PM EDT on September 24, 2016 (GMT -0400)
Fort Lauderdale-Hollywood International

Weather History for KFLL - March, 2014

Change the Weather History Date:

Saturday, March 1, 2014

  Actual Average Record
Temperature  
Mean Temperature 70 °F 72 °F  
Max Temperature 81 °F 79 °F 87 °F (1929)
Min Temperature 59 °F 65 °F 40 °F (1920)
Degree Days  
Heating Degree Days 0 1  
Month to date heating degree days 0 1  
Since 1 July heating degree days 80 103  
Cooling Degree Days 5 7  
Month to date cooling degree days 5 7  
Year to date cooling degree days 393 363  
Growing Degree Days 20 (Base 50)    
Moisture  
Dew Point 58 °F    
Average Humidity 71    
Maximum Humidity 93    
Minimum Humidity 49    
Precipitation  
Precipitation 0.00 in 0.07 in 1.96 in (1980)
Month to date precipitation 0.00 0.07  
Year to date precipitation 5.51 6.66  
Snow  
Snow 0.00 in - - ()
Month to date snowfall 0.0  
Since 1 July snowfall 0.0  
Snow Depth 0.00 in    
Sea Level Pressure  
Sea Level Pressure 30.11 in    
Wind  
Wind Speed 7 mph (NNE)    
Max Wind Speed 16 mph    
Max Gust Speed 22 mph    
Visibility 10 miles    
Events      
T = Trace of Precipitation, MM = Missing Value Source: NWS Daily Summary

Daily Weather History Graph

Daily Weather History Graph

Search for Another Location

Airport or City:

Trip Planner

Search our weather history database for the weather conditions in past years. The results will help you decide how hot, cold, wet, or windy it might be!

Date:

Astronomy

Mar. 01, 2014 Rise Set
Actual Time 6:44 AM EST 6:22 PM EST
Civil Twilight 6:20 AM EST 6:45 PM EST
Nautical Twilight 5:54 AM EST 7:12 PM EST
Astronomical Twilight 5:27 AM EST 7:38 PM EST
Moon 6:42 AM EST (3/1) 6:59 PM EST (3/1)
Length of Visible Light 12h 24m
Length of Day
11h 38m
New Moon, 0% of the Moon is Illuminated
Mar 1
New Moon
Mar 8
First Quarter
Mar 16
Full
Mar 23
Last Quarter
Mar 30
New

Hourly Weather History & Observations

Time (EST) Temp. Heat Index Dew Point Humidity Pressure Visibility Wind Dir Wind Speed Gust Speed Precip Events Conditions
12:53 AM 62.1 °F - 55.9 °F 80% 30.07 in 10.0 mi NNW 3.5 mph - N/A   Clear
1:53 AM 60.1 °F - 55.9 °F 86% 30.07 in 10.0 mi NNW 4.6 mph - N/A   Clear
2:53 AM 60.1 °F - 57.0 °F 90% 30.06 in 10.0 mi NNW 3.5 mph - N/A   Clear
3:53 AM 59.0 °F - 57.0 °F 93% 30.06 in 10.0 mi North 4.6 mph - N/A   Clear
4:53 AM 59.0 °F - 57.0 °F 93% 30.06 in 10.0 mi NNW 3.5 mph - N/A   Clear
5:53 AM 60.1 °F - 57.0 °F 90% 30.09 in 10.0 mi NW 4.6 mph - N/A   Clear
6:53 AM 60.1 °F - 57.0 °F 90% 30.11 in 10.0 mi NNW 3.5 mph - N/A   Clear
7:53 AM 64.0 °F - 57.0 °F 78% 30.12 in 10.0 mi NW 6.9 mph - N/A   Clear
8:53 AM 69.1 °F - 57.0 °F 65% 30.14 in 10.0 mi WNW 4.6 mph - N/A   Partly Cloudy
9:53 AM 73.0 °F - 60.1 °F 64% 30.15 in 10.0 mi WNW 3.5 mph - N/A   Partly Cloudy
10:53 AM 75.9 °F - 62.1 °F 62% 30.17 in 10.0 mi Calm Calm - N/A   Partly Cloudy
11:53 AM 79.0 °F - 61.0 °F 54% 30.15 in 10.0 mi NE 6.9 mph - N/A   Mostly Cloudy
12:53 PM 79.0 °F - 60.1 °F 52% 30.13 in 10.0 mi ENE 11.5 mph - N/A   Scattered Clouds
1:53 PM 80.1 °F 80.9 °F 60.1 °F 50% 30.11 in 10.0 mi ENE 13.8 mph 17.3 mph N/A   Scattered Clouds
2:53 PM 80.1 °F 80.7 °F 59.0 °F 48% 30.10 in 10.0 mi NE 11.5 mph 18.4 mph N/A   Scattered Clouds
3:53 PM 79.0 °F - 59.0 °F 50% 30.09 in 10.0 mi NE 10.4 mph 19.6 mph N/A   Partly Cloudy
4:53 PM 77.0 °F - 57.9 °F 52% 30.10 in 10.0 mi ENE 12.7 mph - N/A   Partly Cloudy
5:53 PM 75.0 °F - 57.0 °F 53% 30.11 in 10.0 mi NNE 9.2 mph - N/A   Partly Cloudy
6:53 PM 73.0 °F - 57.9 °F 59% 30.11 in 10.0 mi NE 8.1 mph - N/A   Partly Cloudy
7:53 PM 73.0 °F - 57.9 °F 59% 30.13 in 10.0 mi NE 8.1 mph - N/A   Clear
8:53 PM 73.0 °F - 57.9 °F 59% 30.14 in 10.0 mi NE 6.9 mph - N/A   Clear
9:53 PM 72.0 °F - 60.1 °F 66% 30.15 in 10.0 mi ENE 8.1 mph - N/A   Clear
10:53 PM 72.0 °F - 59.0 °F 64% 30.15 in 10.0 mi NE 9.2 mph - N/A   Partly Cloudy
11:53 PM 71.1 °F - 57.9 °F 63% 30.15 in 10.0 mi ENE 8.1 mph - N/A   Partly Cloudy